Temp
78 96 100 94 80 83 81 79 85 82 84 89 89 88 84 86 80 71 95 95 95 93 88 86 75 76 77 77 77 78 78 78 78 77 77 76 76 76 76 76 77 78 79 80 79 79 79 79 78
94 97 96 91 78 76 79 83 80 84 87 88 88 89 86 78 89 90 91 94 95 95 94 87 74 76 77 77 77 78 78 78 77 77 77 77 77 76 76 76 76 77 78 79 79 79 79 78 76
90 96 89 85 81 77 77 82 83 85 88 88 86 92 87 80 88 89 94 96 96 95 91 81 74 75 77 77 77 78 77 77 77 77 77 77 77 77 76 76 76 77 78 79 79 79 78 76 75
95 94 91 78 78 80 81 82 84 85 88 90 91 80 86 90 87 93 95 95 93 87 86 76 72 73 74 76 76 77 76 76 76 76 77 77 77 77 77 76 76 77 78 78 78 78 77 75 74
96 91 80 78 78 79 83 84 86 84 84 86 88 82 80 88 91 91 85 82 80 77 73 75 68 70 73 74 74 74 74 75 75 75 76 76 77 77 76 75 75 76 76 77 77 77 75 74 73
86 89 76 75 78 80 83 85 85 83 86 86 87 82 80 90 86 84 81 76 73 72 71 73 72 70 69 70 70 71 73 73 73 74 75 75 76 75 75 75 75 75 75 75 75 75 74 73 73
82 82 77 78 77 76 80 85 82 83 85 83 89 79 81 82 84 84 82 80 76 74 72 71 71 71 71 69 69 70 71 72 72 72 73 74 74 74 75 74 74 74 74 74 74 74 73 73 73
86 83 77 79 76 75 80 82 84 84 80 87 90 80 75 81 84 83 80 78 75 73 72 71 71 71 73 76 70 71 70 70 72 72 72 70 72 72 72 73 73 74 74 74 73 73 72 72 72
89 77 75 77 76 77 81 78 84 87 85 81 81 79 81 84 86 84 80 77 75 73 70 69 69 71 73 78 77 75 74 71 71 72 69 72 81 83 82 78 75 73 72 72 72 71 71 71 71
81 77 78 82 81 79 79 81 81 81 80 78 77 80 82 83 82 79 77 75 72 70 70 69 68 68 71 77 75 78 80 80 77 74 72 73 75 78 77 75 72 72 70 71 71 71 70 71 84
81 75 79 78 80 79 79 79 82 80 77 75 75 75 78 78 76 75 75 74 72 71 70 69 68 67 67 71 74 76 78 77 78 76 72 71 75 74 75 76 76 77 72 80 78 77 78 80 83
74 77 78 79 78 77 76 80 77 76 71 76 76 76 75 73 72 72 71 72 71 70 68 68 68 67 66 70 71 73 74 75 75 75 74 73 74 71 74 76 73 74 76 74 77 78 78 78 79
75 76 77 78 78 78 78 76 76 71 74 76 74 73 71 71 71 71 72 71 71 69 67 66 67 66 66 67 67 68 70 72 70 74 74 72 72 72 74 75 77 78 72 71 73 73 75 76 74
75 75 77 78 78 77 73 76 73 69 74 72 72 70 69 68 68 69 69 68 68 68 67 66 66 65 65 66 65 66 69 69 71 72 71 70 69 69 71 73 77 79 81 75 71 66 70 72 72
75 70 76 77 78 75 77 70 70 72 73 70 69 68 67 67 68 66 67 67 67 68 67 64 64 65 63 64 65 66 68 68 69 70 69 69 67 66 68 70 72 76 78 75 75 74 69 63 66
71 72 67 76 75 74 73 66 68 73 71 69 69 68 67 65 66 66 67 68 69 67 65 65 65 64 62 63 65 66 67 66 68 69 68 68 66 65 65 66 68 72 71 73 76 75 75 70 68
70 64 67 69 74 74 72 66 69 73 71 68 68 68 67 66 66 65 66 66 67 66 64 63 63 62 61 63 65 66 66 67 68 67 68 66 63 63 62 63 66 67 68 69 71 74 75 73 71
64 64 68 66 70 69 68 68 69 70 70 69 69 68 66 65 63 62 63 63 65 64 63 62 62 61 61 64 64 66 66 66 66 66 66 64 63 62 61 62 62 63 65 66 69 69 72 73 74
66 64 64 71 73 64 65 67 72 70 70 69 68 67 66 63 64 63 62 63 63 63 62 61 60 60 60 61 59 60 60 62 63 64 63 63 62 60 59 60 60 61 62 63 64 65 66 69 73
64 62 62 69 71 65 66 67 73 71 69 70 69 68 66 64 64 62 62 62 61 61 60 59 59 59 59 59 58 58 58 59 61 62 62 61 60 59 58 57 57 58 59 59 60 62 62 66 70
63 60 62 62 67 69 66 63 68 73 70 69 69 69 67 65 62 61 60 60 60 59 58 57 58 58 58 56 58 57 57 58 57 57 56 57 56 55 54 53 52 53 54 56 59 60 61 61 67
57 69 63 61 59 55 64 51 65 67 63 64 65 64 65 62 60 61 60 59 58 57 58 57 57 57 57 55 54 51 51 49 51 51 52 51 51 50 50 49 49 49 49 49 51 56 59 60 60
60 63 61 61 59 58 60 55 62 67 63 64 65 65 65 63 60 59 58 58 59 58 57 57 56 56 55 53 51 50 48 48 48 47 45 44 46 47 47 47 46 46 47 48 48 49 51 53 55
65 60 60 60 58 47 57 57 58 62 62 65 68 67 65 61 59 58 58 58 58 58 57 56 55 55 54 52 51 48 45 43 42 42 41 41 43 44 44 45 44 45 46 46 48 48 48 49 52
61 57 46 44 45 44 58 53 58 65 65 64 64 65 63 60 59 57 57 57 55 54 54 54 54 53 52 50 49 47 45 42 40 39 39 38 39 40 41 42 41 43 44 46 47 46 46 48 49
57 57 46 38 42 49 55 48 60 65 66 65 64 65 63 59 57 56 55 55 53 52 53 52 52 51 50 48 47 46 44 41 40 39 38 38 38 38 40 40 40 40 41 42 45 45 47 48 48
55 49 60 48 50 44 51 58 65 61 60 62 61 61 60 59 59 56 54 53 52 51 50 49 48 48 47 46 45 44 42 39 37 37 38 37 38 39 39 39 38 37 38 39 40 42 44 48 48
57 62 45 48 35 35 47 51 50 51 57 59 59 60 60 60 56 54 52 49 50 49 49 46 44 44 45 46 44 42 40 37 37 36 35 35 36 37 36 37 36 35 36 36 38 39 45 44 45
51 50 51 52 49 38 37 42 55 47 57 57 60 63 61 59 54 48 46 47 44 43 43 39 37 39 41 43 42 38 35 35 35 35 34 33 35 35 35 34 33 33 34 34 35 36 37 39 39
59 54 53 41 41 46 44 41 62 60 57 58 60 62 63 58 53 47 34 32 33 32 32 33 35 35 36 38 38 35 34 33 33 33 34 33 33 34 34 34 32 32 32 32 32 32 33 33 34
MSLP
1010.17 1008.60 1007.68 1006.72 1005.17 1002.49 1000.28 1001.04 1001.95 1002.12 1002.36 1003.30 1003.54 1003.01 1003.68 1004.09 1004.38 1005.95 1008.18 1008.58 1008.76 1009.34 1010.76 1011.22 1011.79 1011.84 1011.86 1011.96 1011.95 1012.02 1012.06 1012.12 1012.18 1012.24 1012.41 1012.63 1012.79 1013.11 1013.23 1013.18 1013.24 1013.47 1013.57 1013.56 1013.74 1013.76 1013.73 1013.74 1013.84
1009.30 1008.04 1007.19 1005.18 1003.44 1000.66 999.90 1001.77 1002.17 1002.74 1003.46 1004.13 1004.21 1003.94 1004.13 1005.95 1006.43 1007.18 1008.01 1008.94 1009.12 1009.30 1010.01 1011.37 1012.43 1012.42 1012.40 1012.41 1012.42 1012.35 1012.31 1012.30 1012.42 1012.53 1012.69 1012.80 1012.86 1012.91 1013.05 1013.38 1013.45 1013.50 1013.51 1013.68 1013.81 1013.89 1013.92 1013.98 1013.96
1009.46 1007.97 1006.11 1003.64 1002.07 1000.69 1000.48 1002.16 1002.79 1003.67 1004.17 1004.13 1004.21 1004.49 1005.50 1007.32 1007.77 1008.37 1009.05 1009.21 1009.43 1009.63 1010.87 1012.60 1012.89 1012.80 1012.82 1012.76 1012.76 1012.74 1012.66 1012.62 1012.60 1012.74 1012.73 1012.74 1012.80 1012.92 1013.01 1013.14 1013.34 1013.51 1013.62 1013.66 1013.81 1013.88 1014.04 1014.15 1014.18
1007.72 1006.58 1005.44 1003.82 1001.47 1002.27 1002.40 1003.24 1003.68 1003.89 1004.30 1004.47 1004.35 1006.25 1007.91 1008.36 1008.84 1009.08 1009.52 1009.86 1010.28 1011.18 1011.80 1013.09 1013.26 1013.17 1013.06 1012.94 1012.92 1012.90 1012.93 1012.87 1012.84 1012.85 1012.86 1012.78 1012.72 1012.74 1012.84 1013.07 1013.24 1013.22 1013.45 1013.63 1013.82 1013.78 1013.95 1014.16 1014.26
1007.23 1005.53 1003.85 1002.65 1001.92 1003.32 1003.95 1004.52 1004.32 1004.03 1004.51 1004.86 1005.05 1006.26 1008.40 1009.37 1009.78 1010.34 1011.50 1012.22 1012.56 1013.28 1013.71 1013.77 1013.91 1013.76 1013.39 1013.20 1013.20 1013.13 1013.11 1013.04 1013.03 1012.96 1012.96 1012.93 1012.77 1012.87 1012.83 1012.96 1013.13 1013.32 1013.36 1013.53 1013.64 1013.83 1013.97 1014.04 1014.17
1006.17 1004.94 1003.29 1001.84 1002.20 1004.04 1004.69 1005.14 1004.94 1004.96 1005.10 1005.28 1005.34 1007.22 1009.17 1009.92 1011.13 1012.14 1013.04 1013.60 1014.21 1014.46 1014.57 1014.36 1014.20 1014.27 1014.14 1013.92 1013.76 1013.53 1013.34 1013.20 1013.12 1013.10 1012.99 1012.99 1012.88 1012.77 1012.94 1012.97 1013.08 1013.14 1013.32 1013.41 1013.48 1013.58 1013.78 1014.18 1014.25
1006.01 1004.25 1003.03 1002.22 1002.59 1004.43 1005.12 1005.99 1005.62 1005.30 1005.46 1006.19 1006.23 1007.61 1010.00 1011.34 1012.15 1012.70 1013.29 1013.93 1014.44 1014.75 1014.84 1014.94 1014.92 1014.78 1014.43 1014.38 1014.14 1013.92 1013.65 1013.33 1013.22 1013.12 1013.09 1012.98 1013.02 1012.97 1012.97 1012.92 1012.97 1013.01 1013.09 1013.21 1013.44 1013.48 1013.64 1013.79 1014.06
1006.59 1005.15 1003.44 1003.14 1003.11 1004.38 1006.21 1006.32 1006.61 1006.12 1006.93 1007.77 1007.51 1007.65 1010.05 1011.66 1012.56 1013.29 1013.89 1014.39 1014.84 1015.24 1015.41 1015.60 1015.53 1015.40 1014.88 1014.47 1014.30 1014.07 1013.87 1013.75 1013.38 1013.12 1013.09 1013.07 1012.86 1012.78 1012.78 1012.80 1012.78 1012.78 1012.92 1012.96 1013.15 1013.27 1013.44 1013.77 1013.84
1006.73 1005.46 1003.60 1003.21 1003.84 1004.70 1006.64 1006.67 1007.19 1007.62 1007.14 1008.94 1010.00 1010.56 1011.56 1012.06 1012.45 1012.93 1013.68 1014.56 1015.13 1015.68 1016.22 1016.30 1016.20 1015.90 1015.30 1014.46 1014.36 1014.02 1013.83 1013.89 1013.82 1013.53 1013.52 1012.95 1012.48 1011.92 1011.86 1011.98 1012.11 1012.30 1012.44 1012.64 1012.78 1013.04 1013.28 1013.46 1013.75
1006.31 1004.92 1003.97 1004.94 1005.50 1005.65 1006.92 1006.92 1007.41 1007.66 1008.04 1009.43 1010.87 1011.69 1012.18 1012.59 1013.08 1013.62 1014.19 1014.87 1015.68 1016.15 1016.57 1016.81 1016.78 1016.60 1015.97 1015.15 1015.00 1014.50 1014.05 1013.97 1014.07 1014.25 1014.09 1013.53 1013.01 1012.40 1011.83 1011.65 1011.70 1011.49 1012.03 1012.30 1012.45 1012.60 1012.84 1013.21 1012.59
1006.19 1005.71 1005.90 1006.73 1007.48 1007.62 1007.11 1007.45 1008.05 1007.97 1008.65 1010.44 1011.01 1012.33 1012.88 1013.42 1014.22 1014.70 1015.10 1015.66 1016.16 1016.72 1017.14 1017.30 1017.17 1017.06 1016.71 1016.04 1015.61 1015.10 1014.66 1014.58 1014.23 1014.18 1014.32 1014.14 1013.49 1013.04 1012.47 1012.09 1011.79 1011.71 1011.70 1011.61 1011.78 1012.09 1012.11 1012.02 1011.91
1007.15 1007.05 1007.32 1007.43 1008.44 1008.18 1007.90 1008.30 1008.49 1009.75 1011.30 1012.14 1012.75 1013.43 1013.97 1014.59 1015.15 1015.57 1016.00 1016.27 1016.73 1017.13 1017.57 1017.67 1017.55 1017.48 1017.27 1016.77 1016.34 1015.93 1015.43 1015.17 1014.82 1014.62 1014.46 1014.24 1013.66 1013.65 1012.99 1012.50 1012.24 1011.95 1011.66 1011.70 1011.44 1011.31 1011.39 1011.33 1011.25
1007.59 1007.40 1007.93 1008.10 1008.52 1008.52 1008.53 1008.65 1008.97 1010.97 1012.06 1012.79 1013.60 1014.19 1014.78 1015.31 1015.84 1016.51 1016.80 1017.14 1017.42 1017.58 1017.98 1018.22 1018.06 1017.93 1017.64 1017.07 1017.03 1016.54 1016.01 1015.62 1015.74 1014.89 1014.80 1014.92 1014.59 1013.97 1013.45 1012.91 1012.34 1011.76 1011.80 1011.77 1011.59 1011.35 1011.01 1011.02 1011.12
1008.36 1008.13 1007.84 1007.94 1008.09 1008.47 1008.79 1008.61 1010.23 1011.98 1012.63 1013.24 1013.80 1014.60 1015.33 1016.06 1016.53 1016.87 1017.24 1017.61 1017.80 1017.97 1018.25 1018.55 1018.48 1018.37 1018.19 1017.67 1017.51 1017.05 1016.43 1016.20 1015.73 1015.31 1015.29 1015.21 1015.18 1014.66 1014.04 1013.28 1012.37 1011.67 1011.16 1011.68 1011.73 1011.44 1010.33 1011.21 1011.37
1008.78 1008.20 1007.45 1007.46 1007.69 1008.15 1008.79 1008.95 1009.92 1011.89 1012.70 1013.29 1014.00 1014.87 1015.65 1016.25 1016.85 1017.36 1017.80 1017.95 1018.31 1018.35 1018.65 1018.77 1018.75 1018.68 1018.61 1018.05 1017.76 1017.24 1016.72 1016.59 1016.00 1015.51 1015.53 1015.33 1015.37 1015.14 1014.51 1013.72 1013.04 1012.28 1011.66 1011.66 1011.36 1011.19 1011.50 1011.64 1011.48
1008.51 1007.81 1006.77 1006.41 1007.80 1008.39 1008.92 1007.62 1010.43 1011.89 1012.41 1012.96 1013.88 1014.80 1015.70 1016.60 1017.16 1017.81 1018.22 1018.33 1018.53 1018.93 1019.09 1019.10 1019.14 1018.96 1018.98 1018.51 1018.01 1017.52 1017.03 1016.82 1016.16 1015.93 1015.79 1015.45 1015.52 1015.45 1014.98 1014.37 1013.67 1012.93 1012.60 1012.02 1011.34 1011.15 1010.78 1011.18 1011.26
1007.44 1006.54 1006.10 1006.59 1007.68 1007.74 1008.36 1008.42 1010.22 1011.49 1012.01 1012.85 1013.78 1014.56 1015.36 1016.36 1017.17 1018.02 1018.45 1018.74 1018.88 1019.23 1019.41 1019.35 1019.33 1019.18 1019.11 1018.53 1017.97 1017.47 1017.09 1016.61 1016.28 1016.16 1015.72 1015.68 1015.97 1015.68 1015.49 1014.84 1014.06 1013.57 1013.15 1012.59 1011.98 1011.01 1010.41 1010.24 1010.45
1006.36 1006.32 1006.22 1006.50 1007.33 1008.33 1008.14 1008.19 1009.51 1010.81 1011.42 1012.25 1013.16 1014.25 1015.22 1016.25 1017.42 1018.58 1019.01 1019.41 1019.51 1019.75 1019.92 1019.89 1019.82 1019.72 1019.47 1018.66 1018.24 1017.72 1017.31 1016.76 1016.54 1016.22 1015.94 1016.03 1015.97 1015.90 1015.66 1015.02 1014.50 1014.04 1013.30 1012.64 1012.08 1011.39 1010.68 1010.13 1009.53
1008.24 1007.59 1006.94 1006.68 1007.33 1008.82 1008.38 1008.04 1008.10 1009.61 1010.68 1011.53 1012.70 1013.93 1014.97 1016.23 1017.66 1018.57 1019.29 1019.58 1019.73 1019.91 1020.07 1020.15 1020.11 1020.04 1019.78 1019.14 1018.85 1018.24 1017.67 1017.25 1016.84 1016.40 1016.19 1016.07 1015.91 1015.84 1015.68 1015.22 1014.63 1014.14 1013.53 1012.81 1012.34 1011.84 1011.07 1010.15 1009.63
1008.77 1008.16 1007.54 1007.32 1007.70 1008.76 1008.02 1007.45 1007.44 1008.35 1009.74 1010.84 1012.09 1013.33 1014.49 1015.94 1017.08 1018.36 1018.96 1019.47 1019.94 1020.22 1020.47 1020.61 1020.53 1020.43 1020.22 1020.03 1019.79 1019.27 1018.70 1018.01 1017.08 1016.53 1016.20 1016.24 1016.03 1015.98 1015.77 1015.40 1014.96 1014.43 1013.72 1013.17 1012.64 1012.01 1011.19 1010.25 1009.57
1008.61 1008.27 1007.82 1007.66 1007.86 1008.14 1007.62 1007.05 1006.40 1006.98 1009.39 1010.68 1011.89 1012.94 1014.30 1015.59 1016.85 1018.11 1019.00 1019.55 1020.01 1020.45 1020.75 1020.90 1020.83 1020.66 1020.62 1020.67 1020.05 1019.61 1019.26 1018.16 1017.55 1017.11 1017.09 1016.68 1016.66 1016.58 1016.24 1015.85 1015.55 1015.07 1014.51 1013.39 1012.63 1011.99 1011.22 1010.26 1009.40
1008.20 1008.00 1008.67 1008.65 1008.47 1007.29 1007.41 1006.25 1006.07 1007.03 1009.31 1010.76 1011.90 1013.15 1014.18 1015.80 1017.37 1018.25 1019.07 1019.61 1020.11 1020.64 1020.90 1020.99 1021.01 1020.82 1020.83 1020.89 1020.55 1020.29 1019.71 1019.16 1018.82 1018.36 1017.92 1017.67 1017.43 1017.01 1016.55 1016.23 1015.77 1015.25 1014.77 1014.21 1013.56 1012.57 1011.44 1010.69 1009.49
1008.72 1009.30 1009.34 1009.06 1008.57 1007.94 1007.14 1006.46 1005.44 1006.88 1008.07 1009.61 1011.25 1012.80 1013.99 1015.61 1017.16 1018.24 1019.18 1019.79 1020.09 1020.52 1020.86 1021.04 1021.10 1020.96 1021.08 1021.23 1021.04 1020.77 1020.42 1020.14 1019.71 1019.37 1018.89 1018.51 1017.80 1017.45 1016.76 1016.25 1015.85 1015.30 1014.67 1014.02 1013.55 1013.12 1012.30 1011.55 1010.49
1009.18 1009.59 1009.49 1009.32 1008.88 1007.69 1006.84 1006.29 1005.62 1005.89 1007.46 1008.96 1010.50 1012.24 1014.11 1015.88 1017.24 1018.39 1019.33 1019.87 1020.09 1020.51 1020.91 1021.06 1021.08 1020.99 1021.24 1021.41 1021.31 1021.22 1021.05 1020.84 1020.40 1019.97 1019.36 1018.84 1018.23 1017.52 1016.93 1016.38 1015.98 1015.16 1014.38 1013.77 1013.15 1012.72 1012.27 1011.72 1011.03
1009.57 1009.13 1008.69 1008.34 1007.86 1006.80 1006.46 1006.58 1006.07 1006.90 1008.31 1009.67 1010.97 1012.46 1014.40 1016.02 1017.26 1018.27 1018.99 1019.56 1020.23 1020.71 1021.03 1021.13 1021.15 1021.14 1021.48 1021.71 1021.59 1021.55 1021.51 1021.35 1021.06 1020.51 1019.93 1019.31 1018.58 1017.84 1017.14 1016.56 1015.87 1014.90 1014.11 1013.45 1012.77 1012.30 1011.76 1011.27 1010.87
1009.07 1008.93 1008.40 1007.54 1007.13 1006.39 1007.22 1006.29 1005.92 1008.01 1009.17 1010.55 1011.67 1012.62 1014.29 1015.94 1017.28 1018.24 1019.28 1019.97 1020.43 1020.96 1021.30 1021.55 1021.58 1021.52 1021.88 1022.11 1021.99 1021.97 1022.06 1021.97 1021.63 1021.12 1020.51 1019.70 1019.00 1018.30 1017.50 1016.67 1015.87 1015.01 1014.09 1013.31 1012.47 1011.77 1011.07 1010.77 1010.37
1008.94 1009.20 1009.28 1009.07 1008.80 1008.21 1007.47 1006.98 1007.19 1009.17 1010.13 1011.09 1012.07 1013.16 1014.19 1015.50 1016.83 1018.12 1019.45 1020.34 1020.81 1021.35 1021.84 1022.13 1022.24 1022.22 1022.44 1022.45 1022.36 1022.45 1022.56 1022.55 1022.13 1021.59 1021.00 1020.22 1019.41 1018.55 1017.76 1016.83 1015.96 1015.15 1014.19 1013.32 1012.42 1011.38 1010.45 1009.98 1009.79
1009.39 1009.23 1009.78 1009.86 1009.17 1008.35 1007.37 1007.22 1007.92 1009.56 1009.95 1010.98 1011.74 1012.66 1014.05 1015.41 1017.11 1018.55 1019.93 1020.99 1021.52 1022.04 1022.41 1022.85 1023.21 1023.20 1023.03 1022.75 1022.92 1023.07 1023.11 1023.06 1022.69 1022.13 1021.48 1020.73 1019.92 1019.06 1018.14 1017.10 1016.34 1015.47 1014.49 1013.57 1012.57 1011.50 1009.29 1009.29 1009.56
1009.98 1009.58 1009.71 1009.55 1009.38 1008.89 1008.37 1008.15 1009.02 1010.04 1010.42 1011.05 1011.43 1011.94 1013.16 1015.03 1017.60 1019.50 1020.89 1021.76 1022.65 1023.23 1023.40 1023.91 1024.14 1023.88 1023.69 1023.49 1023.53 1023.82 1023.83 1023.56 1023.12 1022.53 1021.94 1021.35 1020.43 1019.47 1018.60 1017.94 1017.02 1016.07 1015.11 1014.27 1013.28 1012.35 1011.31 1010.55 1010.59
1009.03 1009.24 1009.38 1009.76 1009.63 1009.36 1009.11 1008.44 1009.33 1009.68 1010.82 1011.28 1011.43 1011.92 1012.87 1014.98 1017.59 1019.89 1022.03 1022.89 1023.78 1024.29 1024.42 1024.52 1024.56 1024.74 1024.73 1024.52 1024.40 1024.38 1024.29 1023.92 1023.57 1022.94 1022.22 1021.85 1021.04 1020.19 1019.41 1018.58 1017.83 1016.93 1016.03 1015.31 1014.48 1013.72 1013.09 1012.46 1012.07
Wind_Speed
18 13 6 7 9 8 8 8 5 3 8 6 3 11 20 21 18 9 13 11 9 13 10 9 6 5 5 4 5 5 5 4 6 8 7 7 6 6 7 8 8 7 8 8 7 6 4 4 4
12 8 7 8 10 11 7 7 2 3 8 4 4 5 14 16 16 14 15 12 11 10 11 12 7 7 7 6 5 4 2 3 3 6 7 7 7 7 7 7 7 7 8 9 7 6 4 4 4
13 8 11 6 10 10 8 6 4 5 6 4 6 12 8 12 14 13 11 11 12 12 18 13 10 9 9 8 8 8 7 5 2 2 6 8 9 9 8 8 8 8 8 8 7 7 4 4 4
6 7 7 10 13 11 11 6 2 7 6 1 7 14 10 7 8 14 13 15 18 24 16 16 13 12 12 11 10 10 9 8 6 3 5 10 11 11 11 9 9 9 8 8 8 8 5 5 4
9 8 12 12 3 5 5 5 3 2 5 5 4 14 13 13 17 17 20 18 17 18 16 16 21 21 15 15 14 12 11 10 9 7 6 8 9 8 9 9 9 8 8 8 8 7 6 6 6
9 5 11 12 9 6 6 3 2 3 6 5 9 16 10 16 15 14 15 16 16 15 14 15 18 19 20 20 19 12 10 10 10 9 8 9 9 8 8 9 9 9 10 9 10 8 8 7 6
12 9 14 9 9 7 6 2 3 1 9 9 5 15 10 11 11 13 14 15 15 15 15 15 15 16 14 13 16 16 13 9 9 9 9 9 9 9 8 9 11 11 10 10 10 8 8 9 8
9 7 15 10 7 7 6 2 2 6 10 2 13 6 12 9 12 12 13 14 15 15 15 15 13 14 12 11 12 11 11 17 12 8 9 10 10 10 9 9 12 11 11 12 11 9 8 9 9
6 10 12 5 6 11 8 3 3 1 6 15 11 14 11 8 7 7 10 12 12 13 15 14 15 15 14 11 11 9 7 10 12 13 16 10 9 12 13 13 12 13 11 10 11 9 8 9 9
9 10 7 11 8 4 5 7 4 7 5 15 11 11 10 9 8 9 10 10 13 13 14 13 13 13 13 10 11 11 10 10 8 11 13 8 12 9 12 11 12 12 9 9 10 9 8 9 11
1 10 7 6 5 6 3 5 1 7 6 10 11 8 9 9 10 9 10 11 12 12 11 13 13 13 13 10 9 6 6 7 7 10 10 10 10 8 8 6 6 7 12 9 10 11 9 13 11
10 1 2 5 2 3 3 7 3 10 8 8 10 8 7 8 10 10 10 11 11 12 13 14 14 12 12 9 8 9 8 8 8 9 11 10 6 8 9 6 7 7 6 9 9 7 9 10 11
8 3 3 4 6 7 4 7 0 6 6 7 8 7 7 7 8 9 9 10 10 11 12 12 12 12 12 11 9 9 8 8 10 8 9 9 9 9 9 8 8 7 4 5 8 10 9 10 10
3 5 6 6 8 7 8 8 9 6 7 7 7 8 7 8 7 7 8 9 9 10 11 11 12 12 12 10 11 9 8 9 9 8 9 10 9 9 10 10 10 9 6 6 5 5 6 6 8
6 10 11 11 9 6 10 9 10 9 9 9 8 7 6 7 7 7 8 8 9 9 10 11 11 11 12 12 11 9 8 9 9 8 10 10 10 11 12 10 10 10 10 7 10 7 5 3 5
10 11 13 13 7 6 7 5 13 11 11 10 9 8 7 6 7 8 8 9 10 11 11 11 10 12 13 11 9 8 8 8 8 8 9 11 11 13 11 10 10 10 9 10 8 9 8 8 8
11 13 11 11 5 0 10 3 15 11 9 9 9 8 7 6 5 6 7 9 9 11 12 13 14 14 16 13 10 10 11 8 8 9 9 11 12 12 12 11 11 11 10 10 10 10 11 9 9
9 9 8 11 11 7 11 13 15 13 11 10 9 7 6 4 4 5 7 8 8 9 10 11 11 13 14 10 10 10 10 9 9 10 9 12 10 12 12 11 12 12 10 10 10 11 11 11 10
11 11 13 12 4 4 14 14 12 16 11 11 9 9 7 5 5 4 4 4 5 7 8 11 11 12 11 9 10 10 11 11 11 10 13 13 12 13 13 11 12 12 11 12 13 12 13 12 11
11 13 14 12 7 7 15 15 11 16 11 10 10 9 7 7 6 4 3 4 6 8 9 10 11 12 11 10 11 10 11 12 12 11 11 14 14 14 14 14 13 15 12 14 13 13 11 12 11
13 14 12 10 8 12 20 18 20 14 11 8 9 5 5 4 3 3 1 4 5 7 8 9 10 11 10 12 10 10 11 10 10 11 12 13 16 17 16 16 14 14 13 12 13 13 15 12 11
14 12 9 11 11 10 5 11 12 13 11 12 11 9 9 8 5 2 1 3 5 7 7 8 9 10 10 12 12 15 12 13 12 12 12 14 17 16 15 14 13 12 10 13 12 14 13 13 13
9 2 7 10 12 14 16 11 5 9 11 16 12 11 9 7 3 1 1 3 3 5 7 7 9 9 11 13 13 11 13 11 12 12 15 14 13 15 14 12 12 12 9 10 12 13 14 11 12
4 8 8 9 10 13 17 17 11 6 5 8 7 10 9 8 6 3 2 1 5 6 7 7 9 10 12 13 14 14 14 15 13 13 11 10 10 10 13 14 14 14 12 12 11 11 13 11 12
13 10 7 11 10 11 3 6 8 2 7 4 3 7 8 7 6 4 2 2 4 6 7 8 9 10 12 13 13 14 14 14 14 14 11 14 10 10 12 14 13 12 13 13 12 12 12 12 10
15 13 8 10 10 9 9 6 3 8 9 10 6 4 9 9 7 6 2 1 4 4 7 8 10 10 11 12 12 12 13 9 10 12 11 10 10 10 15 13 13 15 14 13 13 10 10 12 11
9 11 13 15 15 12 12 17 6 10 8 8 7 6 10 11 8 6 4 1 3 5 6 8 10 10 10 10 10 11 11 12 12 13 12 10 12 11 14 15 13 11 11 11 11 8 13 13 12
10 6 7 7 6 12 11 14 4 7 4 7 9 9 9 8 7 7 5 2 3 5 5 8 9 9 9 10 10 9 11 12 12 11 13 14 13 14 14 15 14 13 12 12 10 10 8 10 7
9 11 7 6 10 11 14 9 3 3 0 7 6 7 8 9 8 6 2 4 4 6 7 7 7 8 9 10 9 10 10 11 11 11 12 14 15 15 15 15 15 15 15 14 12 12 15 14 13
14 16 15 8 9 11 13 12 2 4 5 6 9 11 5 7 9 8 5 1 2 2 3 4 7 8 8 9 10 9 9 10 11 12 13 13 14 14 15 15 15 15 15 15 15 15 14 15 15
Wind_Direction
278 245 273 260 244 231 251 108 7 163 150 67 64 9 60 42 26 55 77 51 64 91 112 109 72 70 69 72 92 108 126 158 178 172 174 187 194 212 199 182 182 185 196 197 202 205 192 168 168
297 291 240 273 255 239 147 89 183 79 68 98 120 150 88 59 76 63 63 67 71 100 111 86 62 46 38 28 20 29 58 109 166 181 189 190 200 203 199 199 195 197 201 204 211 225 221 197 186
260 264 270 245 252 292 76 100 86 118 142 166 116 42 45 96 50 74 68 78 79 80 72 66 51 47 38 25 15 4 1 1 359 207 196 196 201 206 205 199 199 210 221 208 218 228 227 208 209
265 206 229 255 262 64 46 76 128 145 133 168 94 99 84 46 70 69 63 53 55 38 71 61 44 38 33 28 18 6 356 347 331 300 242 218 213 204 208 201 210 209 217 212 227 227 186 211 215
236 259 262 242 129 68 74 61 347 138 81 150 217 97 90 90 64 50 50 46 45 47 43 39 35 23 26 34 25 16 1 350 334 321 296 281 240 227 216 209 210 222 220 216 221 235 215 207 208
254 265 255 237 147 117 91 80 348 111 132 134 130 100 89 66 71 67 70 64 51 43 37 31 32 23 28 29 18 10 10 356 335 318 300 287 280 262 239 219 221 220 230 235 226 222 215 217 218
256 272 264 312 115 165 112 344 9 347 156 54 62 139 103 89 81 78 74 72 62 51 40 31 23 14 17 34 17 16 8 359 340 317 293 277 282 274 255 242 227 228 236 236 242 227 212 200 209
277 280 269 240 150 174 122 202 185 335 73 157 351 150 129 101 98 84 69 65 56 44 36 28 22 14 6 10 12 10 18 15 349 325 296 282 267 259 250 246 238 233 226 233 241 233 212 210 207
266 261 259 199 242 113 110 209 65 19 141 48 53 69 85 102 117 100 85 61 51 47 36 27 19 13 2 10 2 2 12 30 7 3 5 307 274 268 235 229 242 216 216 220 233 228 216 205 217
250 258 326 35 23 92 154 255 91 228 151 127 100 88 89 85 73 62 54 52 47 38 34 26 21 14 4 7 356 359 356 359 15 4 355 347 336 311 296 281 233 214 212 230 227 221 201 210 234
244 274 62 100 33 359 335 239 113 267 123 36 84 88 67 66 66 52 52 49 45 38 34 22 19 14 9 1 354 357 348 355 347 5 359 348 338 347 344 321 299 282 238 242 222 226 228 224 234
263 77 299 107 171 276 258 358 246 36 78 65 68 68 73 63 50 47 46 39 32 35 26 18 17 11 10 353 1 348 349 344 351 347 350 346 342 341 332 321 333 322 296 273 259 246 241 235 242
256 137 230 203 225 251 258 241 135 111 96 103 103 89 75 71 70 54 46 41 36 30 28 16 13 9 2 357 355 349 343 348 333 337 343 343 337 335 328 319 306 300 278 290 282 262 244 244 244
57 263 253 247 242 198 241 156 172 142 141 121 116 103 96 84 56 59 41 38 26 26 24 15 11 9 359 354 350 339 339 338 327 332 347 332 337 329 318 319 311 303 290 316 338 339 323 292 285
270 261 218 222 212 173 240 182 195 135 155 138 132 122 108 92 83 60 42 36 26 25 20 14 9 7 359 350 344 335 333 326 322 326 325 327 331 326 316 316 308 307 315 307 286 252 280 287 256
253 238 259 147 188 136 230 217 134 164 164 155 146 145 135 100 75 53 36 30 24 21 14 12 8 5 358 348 336 331 329 325 311 323 317 328 333 321 321 311 308 311 316 304 285 288 265 265 264
201 267 205 154 196 211 230 147 151 176 177 168 175 167 150 132 95 54 38 28 18 21 11 7 4 2 353 343 340 332 332 319 323 318 309 321 324 322 316 308 302 310 302 292 288 279 261 257 260
318 200 247 264 150 216 256 259 163 183 184 190 190 174 172 149 83 55 34 28 16 21 9 5 4 359 347 340 337 330 326 323 319 311 313 319 313 311 313 306 303 301 293 285 280 284 282 280 272
303 289 280 284 96 275 254 255 254 175 196 191 196 188 180 162 122 96 56 51 8 26 11 6 0 358 348 349 341 332 327 322 315 313 313 309 316 310 312 306 303 298 293 292 293 286 279 273 263
251 260 257 264 267 283 265 262 256 167 195 204 204 196 186 165 164 111 59 41 24 18 10 2 360 355 353 351 333 333 324 316 310 306 317 322 313 321 313 311 303 298 292 287 284 279 274 268 268
234 255 265 273 290 252 258 258 251 192 186 183 209 213 155 188 161 146 58 39 19 20 8 359 358 353 360 350 335 332 320 315 317 330 318 323 324 318 309 307 304 302 302 293 284 275 270 269 264
255 249 240 266 265 270 82 292 305 171 180 196 191 189 184 166 182 158 346 23 18 17 7 358 0 359 5 354 345 342 326 325 330 317 321 327 321 316 319 314 304 295 289 284 291 293 292 271 267
260 15 254 259 263 276 267 262 245 165 195 183 192 184 177 156 154 158 24 10 32 19 11 7 358 5 6 357 354 344 341 330 329 329 327 318 318 317 314 316 322 314 302 282 277 282 286 291 297
131 197 217 239 253 257 255 246 265 159 188 92 131 169 155 162 165 176 156 341 31 21 10 2 357 3 8 359 356 354 344 338 333 331 327 327 321 321 323 322 316 302 288 282 280 269 268 270 274
199 206 237 215 210 248 132 260 283 55 125 77 132 157 161 161 190 192 193 355 24 8 7 359 360 3 8 358 360 358 352 345 336 335 331 328 327 327 326 326 314 306 298 291 279 270 269 261 252
212 229 240 247 250 277 136 249 212 101 112 120 138 175 161 182 175 204 176 1 26 14 14 1 359 1 4 356 1 4 359 352 341 339 336 332 331 329 330 328 324 323 312 300 288 274 259 256 254
199 225 253 271 271 265 264 270 135 112 131 155 170 184 191 194 190 185 169 137 40 17 22 11 2 6 1 358 3 6 5 358 350 346 343 340 341 342 339 339 341 336 331 324 308 285 264 253 251
231 192 193 222 247 250 258 270 334 160 201 167 218 217 232 204 186 175 163 104 49 31 24 26 10 5 356 3 8 9 7 1 352 353 351 353 351 354 350 357 358 354 352 346 349 337 321 231 246
186 213 235 279 254 273 279 275 110 191 138 300 295 287 220 197 194 172 90 120 52 26 18 27 6 10 6 6 11 12 9 360 358 359 3 359 354 358 6 8 6 9 9 5 6 11 21 39 35
216 216 215 224 250 246 264 270 264 263 210 255 283 305 298 169 172 169 165 125 64 64 35 32 15 16 7 8 10 11 12 10 3 3 8 6 358 2 8 15 16 14 13 20 19 23 25 34 33